Location: Bessat
(45.8735°N, 1.9924°E)
Time: 07:54:13
(UTC+00:00)

NOSS 3-4 (C) - Pass Details

Date: 11 May 2021
Orbit: 873 x 1339 km, 63.4° (Epoch: 06 May)

Event Time Altitude Azimuth Distance (km) Brightness Sun altitude
Rises 21:10:02 0° 321° (NW) 3,789 8.4 -16.7°
Reaches altitude 10° 21:12:34 10° 324° (NW) 2,897 7.3 -16.9°
Maximum altitude 21:19:29 70° 48° (NE) 1,225 4.0 -17.7°
Enters shadow 21:24:13 25° 127° (SE) 2,215 4.8 -18.2°
